RH
14 20 29 33 31 30 30 28 26 26 26 27 27 32 36 36 36 38 38 37 37 38 41 43 43 43 43 43 45 46 49 53 57 60 62 63 64 64 64 64 64 66 67 69 71 73 75 77 80 81 83 85 86 87 87 88 88 89 89 88 88 87 85 85 84 82 78 74 71 69 67 65 64 63 62 61 60 60 60 61 61 62 63 64 64 64
17 29 36 31 25 23 24 23 24 25 26 28 32 38 41 39 41 43 40 41 42 44 47 49 49 51 50 50 52 55 57 59 61 64 66 67 67 67 67 67 68 69 70 72 74 75 76 76 77 78 78 79 79 80 80 80 79 79 78 77 76 74 72 71 69 69 67 66 65 66 67 67 68 68 69 70 71 72 73 73 73 73 73 72 72 72
30 40 37 26 23 22 23 24 25 26 27 31 37 42 41 40 42 44 44 45 46 50 53 53 53 55 55 56 58 58 59 60 63 66 68 69 69 69 69 69 70 71 73 74 74 72 72 71 71 71 70 70 70 70 69 69 68 67 67 67 66 66 67 68 68 68 69 70 71 72 73 74 75 76 76 76 77 78 78 79 79 79 79 78 78 77
32 36 30 22 22 24 23 26 26 26 32 40 45 42 38 41 44 45 49 50 48 51 54 55 58 59 59 59 58 58 60 64 68 70 71 71 70 69 67 67 68 69 71 70 69 68 68 68 67 66 66 66 66 67 66 67 67 68 68 69 69 70 72 73 75 75 76 77 77 78 78 79 79 79 79 79 79 80 79 80 80 79 79 79 79 78
30 25 23 22 23 22 22 29 31 28 34 40 45 43 38 43 47 44 45 46 49 54 54 55 62 65 64 62 62 64 67 71 73 74 74 72 70 68 65 64 63 63 63 63 64 65 65 66 66 66 68 69 70 71 71 72 72 73 74 75 76 76 77 77 78 78 79 79 80 80 81 82 82 82 81 81 80 80 79 79 79 77 77 75 73 71
32 20 20 20 19 21 26 37 37 32 35 37 42 44 37 39 45 43 40 44 53 56 54 55 56 59 67 72 70 69 72 75 76 76 76 74 71 69 66 65 64 63 64 64 65 66 67 69 70 72 74 75 75 75 76 76 76 76 76 77 78 78 79 79 79 80 80 80 81 81 81 81 82 81 81 81 80 79 78 76 73 70 67 62 58 53
23 16 18 19 25 34 41 44 36 30 35 40 42 40 33 33 42 44 42 47 50 48 52 55 50 49 63 78 78 72 74 77 78 78 78 76 74 72 70 70 69 69 70 70 71 72 73 75 75 77 78 78 79 78 79 79 79 81 81 81 82 82 82 82 82 82 81 82 82 81 81 80 80 79 78 77 75 72 68 63 58 52 46 41 37 34
18 18 22 25 34 41 41 38 34 30 32 36 37 33 30 34 42 49 51 52 48 45 51 55 55 49 53 74 84 79 79 81 82 82 80 79 77 75 74 73 73 74 74 75 75 76 78 79 80 81 81 82 83 83 84 85 86 86 86 85 85 85 85 84 84 84 83 83 82 81 79 77 75 71 67 62 56 51 46 41 37 32 29 26 24 23
19 25 28 27 31 34 33 32 32 29 29 34 34 31 32 33 38 47 55 55 49 48 50 51 59 53 50 76 93 89 89 91 91 89 84 82 80 78 77 76 77 77 77 79 80 81 83 84 85 86 87 88 88 88 88 88 89 89 89 89 88 88 88 87 86 85 82 80 76 72 67 62 55 49 44 39 34 31 28 26 24 22 21 21 20 20
24 31 30 25 26 29 30 32 31 31 35 37 32 30 32 32 34 40 49 54 50 50 48 44 54 51 50 77 92 90 94 96 98 98 91 87 84 81 80 79 80 81 82 84 84 86 87 89 91 91 92 91 91 91 92 92 91 91 91 91 90 89 87 84 80 75 70 64 58 51 45 40 35 31 28 26 24 22 21 20 20 19 19 18 18 18
25 32 30 25 26 29 30 33 34 34 35 34 32 36 38 39 43 44 46 50 46 47 46 43 50 48 47 69 85 89 95 96 99 101 96 92 87 84 83 81 83 83 84 86 87 89 90 91 93 93 93 94 94 94 93 93 92 91 91 89 86 81 74 68 61 54 48 42 37 32 29 27 24 23 22 20 20 19 19 19 18 18 18 17 17 17
28 30 30 26 28 30 31 36 39 37 35 35 37 40 38 35 39 41 44 48 45 44 44 43 46 45 48 72 91 96 98 98 100 100 99 98 93 88 86 85 86 87 88 90 91 92 93 94 96 96 97 95 94 94 93 91 89 86 81 74 66 57 50 44 38 34 30 27 26 24 23 22 21 21 20 20 20 19 19 19 19 19 18 18 17 17
34 32 30 29 31 32 32 36 39 40 41 42 40 39 35 32 36 39 37 38 38 38 44 47 45 44 58 84 96 94 94 97 100 99 98 97 94 93 93 92 92 92 93 93 94 96 97 98 99 98 97 97 95 92 87 81 73 64 55 47 40 36 32 30 27 26 25 24 23 23 22 22 22 21 21 21 20 20 20 20 19 19 19 18 17 17
34 34 33 32 35 37 37 40 42 40 42 46 43 42 39 40 53 57 46 41 43 43 47 51 48 53 73 89 87 82 86 91 94 96 96 95 96 98 98 98 97 97 97 98 98 99 99 99 99 98 96 92 85 75 65 56 47 40 35 32 30 29 28 26 25 25 24 24 23 23 23 22 22 22 22 22 21 21 20 19 19 18 18 17 17 16
36 36 34 36 39 42 40 40 43 41 44 49 49 48 47 51 63 66 56 55 57 53 52 53 56 67 83 87 81 80 84 88 93 97 98 99 100 100 100 100 100 99 98 98 98 98 99 99 95 89 79 68 59 49 43 38 34 32 30 29 28 27 26 26 25 25 24 24 24 23 23 23 23 22 21 21 20 20 19 18 18 17 17 17 17 17
40 36 36 40 41 43 43 42 43 42 43 48 50 52 53 54 60 61 55 57 60 59 58 60 65 74 80 81 80 82 85 90 95 98 100 100 100 99 100 100 100 99 98 98 99 97 92 84 73 63 54 48 42 38 35 33 31 30 29 29 28 27 27 26 25 25 24 24 24 23 23 22 22 21 20 20 19 18 18 18 18 18 18 18 18 18
43 40 40 42 42 42 43 44 44 43 46 51 52 53 52 53 57 59 55 51 55 57 52 54 67 75 78 82 82 81 85 89 92 95 97 97 97 98 99 99 98 99 97 93 88 79 68 60 55 50 45 41 37 35 34 32 31 30 29 28 27 26 26 25 25 25 24 24 23 22 22 21 20 19 18 18 18 18 18 18 18 17 17 16 15 15
44 47 45 38 38 39 37 44 47 41 41 48 53 47 42 50 55 53 51 47 46 46 39 46 67 77 82 88 87 84 85 85 86 88 90 90 93 93 91 91 92 91 86 77 69 63 56 52 49 46 41 38 36 35 33 32 30 29 27 26 26 25 25 25 24 24 23 22 21 20 19 18 18 18 18 18 18 17 17 16 15 14 13 12 11 10
39 47 45 29 28 28 27 40 49 41 30 35 51 45 33 47 53 44 46 49 49 48 42 47 61 74 87 93 89 87 85 84 84 83 83 83 84 84 84 86 87 82 75 69 66 64 58 50 45 41 40 38 36 33 31 30 28 26 25 24 24 24 24 24 23 22 20 19 18 18 17 17 18 17 17 16 15 14 13 12 11 10 10 9 8 7
38 44 38 24 25 27 25 33 46 46 31 27 44 40 26 40 50 44 49 54 53 53 52 50 50 66 90 90 84 88 86 83 81 76 75 74 73 80 88 90 85 78 74 70 65 59 52 46 42 40 38 35 33 31 29 28 26 25 24 24 25 25 23 22 20 18 18 17 17 17 17 17 16 15 15 13 12 11 10 9 8 7 7 7 7 7
40 44 37 27 29 35 32 28 34 42 38 38 47 39 28 38 47 48 57 62 58 53 55 57 50 61 83 82 79 85 74 63 60 60 68 73 74 83 91 88 79 73 70 64 57 51 46 42 39 36 34 31 29 29 28 27 26 25 24 23 23 22 20 18 17 16 16 16 16 16 15 14 13 12 11 10 9 9 8 8 7 7 8 8 8 9
31 32 35 35 30 31 28 23 29 36 35 42 50 46 48 58 58 51 50 59 64 57 58 64 56 58 74 78 79 74 51 40 41 46 61 75 81 84 82 77 71 66 62 55 49 46 42 38 36 32 30 28 26 26 25 25 24 22 21 20 18 17 16 15 16 16 16 16 15 14 12 12 11 10 9 8 8 8 8 8 9 9 10 10 11 12
20 17 33 42 30 25 23 22 35 37 29 35 38 36 47 59 63 57 50 57 63 56 55 55 47 51 67 72 68 52 36 37 41 44 55 67 74 76 71 67 64 59 54 49 46 44 40 36 33 29 27 25 23 24 23 22 21 19 17 16 15 15 15 15 16 15 15 14 12 12 11 10 9 8 8 8 8 9 10 11 11 12 13 13 14 14
24 19 34 40 27 30 33 32 44 46 44 50 41 33 40 49 56 56 56 63 65 58 54 43 35 49 61 55 43 35 34 38 41 44 49 54 60 65 64 62 59 54 50 48 45 41 36 31 28 25 23 22 22 22 21 20 18 16 15 14 15 15 16 15 15 14 13 12 11 10 10 9 8 8 9 10 11 12 13 13 14 15 16 16 16 16
24 19 30 31 21 29 36 39 49 49 54 64 49 37 43 47 48 46 52 66 66 58 52 41 37 49 56 48 41 46 50 45 46 54 54 54 59 64 65 62 57 53 48 44 39 32 28 25 22 21 21 22 22 21 19 17 15 14 15 15 16 16 15 14 13 12 11 11 10 9 9 8 9 10 11 12 13 14 16 17 17 18 18 18 19 19
12 9 20 24 20 24 26 35 44 38 48 64 51 37 39 40 38 38 50 60 51 44 47 46 46 51 55 56 56 66 76 69 66 68 64 64 69 71 70 63 56 50 43 36 31 26 23 22 21 22 23 23 22 19 17 15 14 15 16 16 16 15 14 13 12 12 11 10 9 9 9 10 11 13 14 15 16 18 18 19 19 19 20 21 22 22
11 13 14 14 16 19 19 27 30 24 40 55 42 31 34 34 32 36 47 48 40 46 52 49 49 51 51 56 59 69 80 72 63 64 67 71 74 72 68 60 53 48 39 32 29 25 24 22 22 24 24 21 19 15 15 15 15 16 16 16 15 14 13 12 11 11 10 9 10 10 12 13 14 15 17 18 20 20 19 20 20 21 23 24 24 23
16 23 16 8 11 13 14 19 19 19 32 36 30 30 31 30 33 37 39 35 37 51 51 40 45 51 50 57 60 59 59 56 56 63 69 71 67 64 62 58 52 45 36 32 29 26 25 25 25 25 22 19 16 13 14 16 16 17 16 15 14 13 12 12 11 11 10 11 13 14 15 16 17 19 20 21 21 20 21 22 23 24 25 25 26 28
14 18 14 11 14 13 16 21 20 22 24 22 25 31 27 28 36 37 33 31 36 44 42 39 47 51 51 56 55 49 47 53 58 60 62 65 63 61 61 56 49 42 34 30 28 26 27 27 26 25 21 18 14 14 16 17 16 16 15 14 14 13 13 12 11 11 12 14 16 16 17 18 19 21 21 21 21 21 23 24 25 26 27 30 35 39
14 16 14 15 15 15 19 22 22 25 23 21 28 31 25 29 36 34 30 33 35 36 40 43 43 45 50 53 49 46 49 55 59 62 69 73 69 63 60 52 43 36 31 28 27 27 28 27 25 21 18 15 14 15 17 16 16 15 14 14 13 13 12 11 11 13 14 16 17 17 19 20 22 23 22 23 23 24 26 27 26 28 32 39 47 51
15 16 15 16 19 22 22 22 25 25 21 23 30 29 26 30 34 34 31 32 34 36 40 42 44 52 58 52 47 50 53 57 64 68 73 75 69 63 57 46 37 33 30 28 28 29 27 24 20 17 15 15 16 17 17 16 16 15 14 14 13 13 12 12 13 16 17 18 18 19 22 23 23 24 23 24 25 26 27 27 29 35 43 50 54 56
14 16 16 17 23 26 24 24 26 24 24 33 37 30 27 31 34 35 33 31 34 39 39 42 51 62 60 50 49 54 56 60 67 69 69 69 67 61 50 40 36 33 30 28 29 29 24 19 16 15 15 16 17 17 17 16 15 15 15 14 13 13 13 14 17 18 18 19 20 23 25 25 25 25 25 27 28 28 28 31 38 47 53 56 58 60
15 17 18 20 24 27 25 26 28 30 38 46 40 28 28 32 33 34 34 33 37 42 45 46 50 54 51 50 53 54 56 63 68 69 70 69 64 55 44 38 36 32 29 29 29 25 20 16 15 15 16 18 18 17 17 16 15 15 15 14 13 13 14 16 19 19 19 21 24 26 27 27 27 27 28 29 29 29 33 40 50 58 60 61 63 65
16 17 18 20 25 29 27 27 31 37 40 36 28 26 30 34 35 34 34 33 34 39 44 45 44 47 50 54 56 54 55 61 64 68 72 68 60 51 42 38 34 30 29 29 26 21 17 15 15 16 18 18 18 17 16 16 15 15 15 14 14 14 16 19 19 19 21 24 27 29 28 28 28 27 28 29 29 33 42 53 60 64 65 66 68 70
16 18 19 21 25 29 30 30 35 37 31 25 26 31 34 36 36 35 33 32 32 36 40 41 43 47 50 52 52 53 55 56 59 65 67 63 56 50 44 38 32 30 30 27 22 18 16 15 17 18 18 18 18 17 16 16 16 15 15 14 14 16 18 20 19 21 24 28 29 30 29 28 27 27 28 28 32 40 52 61 65 67 69 70 71 72
17 18 20 24 26 29 31 34 36 34 28 27 30 33 35 36 35 35 34 31 32 37 39 40 43 44 45 46 48 51 54 55 59 63 59 56 55 51 43 36 32 31 30 26 22 18 15 16 18 19 19 18 17 17 16 16 16 15 15 15 15 18 20 19 21 25 29 31 31 30 30 28 27 28 29 30 37 49 60 66 68 70 72 71 71 74
18 18 21 27 29 29 32 35 34 34 33 33 33 33 36 36 35 38 37 31 32 37 38 39 41 41 41 43 45 49 54 58 63 63 57 54 54 48 41 36 34 33 30 25 20 16 16 18 19 19 19 18 17 17 17 16 16 15 15 15 17 19 20 20 24 29 31 32 32 31 30 29 29 29 29 33 44 58 66 69 70 73 74 73 74 76
18 18 20 26 27 28 35 37 34 34 35 35 34 33 35 36 36 39 39 34 34 37 35 36 38 38 39 42 45 51 57 62 65 61 56 54 50 42 37 35 34 31 27 22 18 16 17 19 19 19 19 18 17 17 17 16 16 16 15 17 19 19 20 22 28 32 33 33 32 31 31 31 32 31 31 38 53 65 70 71 73 76 78 78 78 78
19 18 20 27 29 29 34 37 35 34 34 33 33 34 36 37 36 39 46 48 44 39 35 35 36 38 40 42 47 55 62 66 64 58 54 51 42 34 32 33 33 30 25 19 16 17 19 20 20 20 19 18 18 17 17 17 17 16 17 18 20 19 20 26 32 34 34 33 32 33 34 34 35 34 34 43 58 69 72 73 76 80 82 82 80 78
18 19 21 27 30 31 35 36 35 34 34 33 34 36 37 37 37 46 55 55 45 38 36 36 36 38 41 44 51 58 64 67 65 60 56 50 41 37 37 37 35 29 22 17 16 18 20 20 20 20 19 19 18 17 18 17 17 17 18 20 20 20 24 30 34 35 35 35 35 36 37 38 39 38 39 46 60 71 75 77 80 84 85 83 80 79
20 20 20 23 27 33 39 40 36 35 35 36 36 37 38 37 42 51 54 47 42 39 37 36 38 40 41 46 53 58 62 65 64 61 58 53 48 45 42 39 36 29 22 18 17 19 20 21 20 20 20 19 18 18 18 18 17 18 20 21 20 22 27 33 36 36 36 37 38 39 40 42 44 44 43 48 60 71 77 81 85 87 86 82 80 80
23 23 24 26 26 31 37 38 37 36 36 37 37 37 38 40 45 49 46 43 42 40 35 34 37 39 41 45 51 55 58 60 61 59 57 55 51 48 45 42 37 29 21 18 17 19 20 21 20 20 20 20 19 18 18 18 18 19 20 21 21 23 29 35 37 37 38 39 41 42 43 46 48 49 47 48 55 67 77 84 88 88 87 83 81 80
24 25 30 32 28 31 38 38 37 36 35 36 38 38 38 41 43 43 43 42 39 35 31 32 35 38 41 45 50 54 56 58 59 59 58 55 52 49 46 42 35 27 20 18 18 20 21 21 21 21 21 20 19 19 19 19 19 20 21 22 22 23 29 35 38 39 39 40 43 45 47 49 52 53 52 50 51 60 73 84 88 88 87 84 81 79
24 23 28 30 27 30 36 35 32 32 33 36 39 39 40 41 42 43 45 40 33 30 31 32 35 39 42 44 49 53 56 58 60 60 58 55 52 49 45 40 33 24 19 18 19 21 22 22 22 21 21 21 20 19 20 20 20 21 22 23 23 24 29 35 38 40 39 41 44 47 48 51 53 56 58 56 53 55 66 79 87 88 87 84 81 79
22 20 21 24 23 24 27 26 27 29 33 37 40 40 41 42 42 45 45 37 29 28 30 32 36 40 43 46 50 53 56 58 60 60 59 55 52 49 45 39 30 22 18 18 20 22 22 22 23 23 22 22 21 20 21 21 21 22 23 24 24 25 28 33 37 39 39 41 45 47 49 53 55 57 60 61 59 57 59 70 84 89 88 86 84 80
20 19 19 20 21 21 22 23 25 28 33 38 41 41 41 42 43 45 42 34 27 27 30 32 36 40 44 48 51 54 57 60 60 61 60 56 53 50 45 38 30 21 18 19 21 22 23 24 24 24 23 23 22 21 22 22 23 23 24 26 26 26 28 31 34 37 38 39 42 45 49 53 55 57 58 61 65 65 61 63 76 89 93 92 88 82
20 20 20 19 19 21 21 22 24 28 33 39 41 41 41 41 43 44 41 33 27 27 30 33 37 42 46 50 52 55 58 60 61 61 60 57 55 52 47 39 30 22 19 19 21 23 24 24 24 25 24 23 22 22 23 24 24 24 25 27 28 28 29 30 32 34 35 36 38 41 44 49 52 54 56 58 64 70 69 64 68 84 97 99 91 83
22 21 20 19 19 20 21 22 25 29 34 38 40 41 42 42 43 44 41 33 28 27 29 33 38 44 47 50 53 56 58 61 62 62 61 58 56 53 48 40 31 23 19 19 21 23 24 25 26 26 25 24 23 23 24 25 25 25 26 28 29 30 31 31 33 33 34 35 36 37 39 42 45 49 54 57 61 69 75 72 66 74 93 104 98 87
23 21 20 19 19 19 20 23 26 30 35 39 40 39 41 42 44 44 42 36 30 28 30 34 40 45 48 51 55 58 60 62 63 63 62 60 58 54 48 40 31 23 19 19 22 24 25 26 26 27 26 25 24 24 25 26 26 26 27 29 30 31 32 33 34 35 36 36 36 36 36 37 39 42 48 54 59 64 73 79 75 70 80 99 105 97
24 22 21 19 19 20 21 23 26 30 36 40 41 40 41 42 43 44 43 38 32 31 33 37 42 46 48 51 55 58 61 63 64 64 64 61 58 54 48 40 32 24 19 20 22 24 26 27 28 28 28 26 25 25 26 27 27 27 28 30 31 32 33 34 36 37 38 37 37 37 38 38 39 39 42 49 57 60 64 74 82 80 77 86 100 104
26 24 22 20 20 21 21 23 27 32 38 41 41 41 42 43 44 45 43 39 35 34 36 40 45 48 50 53 56 59 62 65 65 65 65 62 59 55 48 41 33 24 20 20 22 24 27 28 29 30 29 28 27 26 27 28 29 29 30 31 32 33 34 35 36 38 39 39 41 43 45 45 45 44 42 44 51 57 58 60 71 81 82 81 90 102
Wind_Speed
12 10 7 8 9 11 13 15 16 17 18 18 18 17 18 17 16 19 21 21 20 18 19 22 23 24 26 27 28 27 26 24 23 22 21 20 19 18 17 17 16 16 16 16 17 17 18 18 19 20 21 21 22 23 24 24 24 24 24 24 24 24 24 24 24 24 24 24 24 25 25 26 27 28 28 29 30 30 31 32 33 34 35 36 37 38
11 6 7 11 13 14 15 16 16 17 17 16 16 15 15 15 15 20 23 21 21 19 20 24 23 22 25 26 26 25 24 24 24 22 21 19 18 17 17 17 16 16 16 16 17 17 18 18 19 19 20 21 21 22 22 22 22 23 22 22 22 22 22 22 23 23 23 24 24 25 25 26 27 28 29 30 31 32 33 35 36 37 39 40 41 43
8 5 10 13 14 14 14 15 15 15 16 15 14 12 13 13 15 19 21 20 20 18 20 23 22 22 25 26 25 25 25 25 23 21 20 19 18 17 17 17 17 16 16 17 18 18 18 18 19 19 20 20 20 20 20 20 20 20 21 21 21 21 22 22 23 24 25 26 27 27 28 29 31 32 33 34 35 36 37 39 40 42 43 44 45 47
5 7 12 14 14 14 15 15 15 15 14 12 10 10 12 12 13 15 17 18 18 17 18 19 19 21 24 24 25 25 24 23 21 19 18 18 17 17 17 16 17 17 17 18 18 18 19 19 20 20 20 20 19 19 19 19 20 20 20 21 22 23 23 24 25 26 27 28 30 31 32 33 34 36 37 38 39 40 42 43 44 45 46 48 49 50
6 8 12 14 14 15 14 13 15 15 13 10 10 11 12 13 14 16 18 19 17 17 21 18 14 18 23 23 23 23 22 20 20 18 17 16 16 16 16 16 17 17 18 18 19 19 19 19 19 19 19 19 19 19 19 20 21 21 22 23 24 25 26 27 29 30 31 32 33 34 35 37 38 39 41 42 43 44 46 47 48 49 50 51 52 53
8 12 14 15 14 14 13 10 12 13 12 10 9 12 14 13 14 17 19 16 12 14 19 15 8 9 15 18 20 21 21 20 20 19 18 17 17 17 16 17 17 18 18 19 19 20 19 19 19 18 18 19 19 20 21 22 23 24 25 26 27 29 30 31 32 33 35 36 37 39 40 41 42 44 45 46 48 49 50 50 51 52 53 53 53 53
12 16 15 14 13 12 10 9 12 14 12 9 10 13 16 14 13 15 15 10 9 10 12 10 7 6 8 13 18 19 19 21 20 19 19 19 18 18 17 18 18 18 19 19 19 19 19 18 18 19 19 20 22 23 24 25 26 27 28 29 31 32 34 35 36 38 39 40 42 43 44 46 47 48 49 50 51 52 52 52 52 52 52 51 51 51
15 15 13 14 13 10 9 11 14 15 14 11 13 16 17 15 12 13 12 10 11 12 13 10 11 11 7 10 16 16 16 19 20 21 21 20 20 19 19 19 19 19 19 19 19 19 19 19 20 20 22 23 24 25 26 28 29 30 32 33 35 36 38 39 40 42 43 44 46 47 48 49 49 50 50 51 51 51 51 51 50 50 49 49 49 48
14 12 12 14 15 12 13 16 16 16 15 13 15 16 17 16 14 13 11 12 13 12 13 12 12 9 3 10 11 10 11 14 17 21 22 21 21 20 20 20 19 19 19 19 19 19 20 20 21 22 24 25 27 28 30 31 33 34 36 37 39 40 42 43 44 45 46 47 48 49 49 50 50 50 49 49 48 48 48 48 48 47 47 48 48 48
12 11 12 16 19 18 17 16 16 16 14 15 18 18 18 18 16 14 12 13 13 12 14 12 11 9 2 9 8 6 9 9 11 18 22 23 23 22 22 21 21 21 20 20 21 21 22 22 23 25 26 28 30 31 33 35 36 37 39 40 41 43 44 45 46 47 48 49 49 49 49 49 48 48 48 47 46 46 46 47 47 47 48 48 49 49
13 10 11 19 21 18 17 15 17 19 16 18 21 19 19 18 15 12 9 9 10 7 6 5 6 10 4 6 6 6 9 7 10 15 20 23 25 25 24 24 23 23 23 23 23 23 25 25 27 29 30 32 34 35 36 38 39 40 42 43 44 45 46 46 47 47 47 47 47 47 46 46 46 46 46 46 46 46 46 47 47 48 49 50 51 52
14 10 12 20 19 16 18 17 17 19 19 21 19 16 17 15 10 8 6 6 6 3 4 8 4 8 5 5 4 7 9 9 11 14 17 21 24 26 27 26 26 26 25 25 26 26 28 29 30 32 34 35 37 38 40 41 42 43 44 45 46 46 46 45 45 45 44 44 44 44 44 45 45 46 46 47 47 47 48 49 49 50 51 51 52 54
11 9 13 21 18 19 24 20 16 17 17 18 17 16 16 10 7 7 4 4 6 3 7 11 12 7 2 3 3 10 10 12 14 16 19 22 24 26 27 27 27 27 27 28 28 29 30 31 33 35 36 38 40 41 42 43 44 45 45 46 45 45 45 44 44 44 44 44 44 45 45 46 46 47 48 49 49 49 50 51 52 52 53 53 54 55
8 7 13 20 18 21 27 21 18 18 15 15 16 17 13 8 7 7 6 8 8 5 9 17 15 5 0 2 8 11 12 13 15 18 21 22 22 24 26 27 27 28 28 29 30 31 33 34 35 37 39 41 42 43 44 45 45 46 46 46 46 46 46 46 46 46 46 47 47 47 47 48 48 48 49 50 51 51 52 53 53 54 55 55 55 55
7 5 13 18 17 22 24 19 19 17 11 12 14 14 12 9 7 5 7 9 9 12 18 17 10 2 2 6 12 14 15 15 15 17 19 21 22 23 25 26 27 28 29 31 32 33 34 36 38 40 42 43 44 45 46 47 47 47 48 48 48 49 49 49 48 48 48 48 48 48 48 49 49 50 50 51 52 52 53 54 54 55 55 56 56 57
7 5 14 18 19 22 20 17 19 15 10 10 12 12 13 11 6 7 10 11 11 13 12 5 2 3 5 9 14 15 15 14 14 16 18 20 21 23 24 25 27 29 30 32 34 36 37 39 41 42 43 44 46 47 48 48 49 48 48 48 48 49 48 48 48 48 48 48 48 48 49 49 50 50 51 52 52 53 54 55 55 56 57 58 58 59
10 6 13 20 22 20 16 16 19 18 13 10 11 14 15 11 7 8 11 12 11 9 7 1 1 3 5 8 12 13 15 14 14 15 17 18 20 21 23 24 26 28 30 33 35 38 39 40 41 43 45 47 47 48 48 47 47 48 47 47 47 47 47 47 47 47 47 47 48 48 49 50 50 51 52 52 53 54 55 56 57 58 59 60 61 61
11 4 8 18 19 16 15 15 16 18 17 13 11 16 15 7 5 8 10 10 8 7 8 5 3 2 2 6 10 14 15 15 16 16 17 18 18 20 22 24 26 29 33 35 37 39 40 41 43 45 47 47 47 46 46 46 46 46 46 46 46 46 46 46 46 46 47 47 48 49 49 50 51 52 52 53 54 55 57 57 58 59 60 60 61 62
13 4 4 14 16 14 15 13 12 16 19 17 13 17 17 6 5 11 10 8 7 7 8 7 4 3 2 4 9 13 15 17 19 20 21 21 21 23 25 27 30 33 35 36 38 39 42 45 46 45 45 46 46 46 46 46 46 46 46 46 46 46 46 46 47 47 47 48 49 49 50 51 52 53 54 55 56 57 58 58 58 59 59 60 60 60
12 6 5 12 15 14 15 14 11 14 20 20 16 18 19 9 7 12 10 6 7 8 7 9 8 3 2 6 10 11 15 20 23 24 25 26 26 26 28 31 33 34 35 37 40 42 44 45 45 45 45 45 46 46 46 46 46 46 46 46 46 46 46 47 47 47 48 49 49 50 51 52 54 55 55 56 56 57 57 57 57 57 57 57 56 56
10 6 6 11 13 11 11 14 13 14 19 20 18 21 22 16 10 10 7 4 7 8 6 9 9 4 4 9 11 13 20 25 26 27 27 28 30 29 30 33 34 35 38 41 43 43 44 44 44 44 45 45 46 47 47 46 46 46 45 45 46 46 46 46 47 47 48 49 50 52 53 54 54 55 55 55 55 55 55 54 54 54 53 53 53 53
11 10 8 9 9 8 9 13 13 14 17 18 18 19 18 15 12 8 4 5 8 8 7 9 8 6 9 12 13 20 29 32 32 31 28 28 30 31 32 34 37 40 42 43 43 43 43 44 44 44 45 46 46 47 47 46 45 45 45 45 45 45 46 46 47 48 49 50 51 52 53 53 54 54 54 54 53 52 51 51 50 50 51 51 52 52
13 15 11 7 6 8 9 11 11 13 19 20 20 20 16 11 10 7 6 9 11 10 11 12 9 8 11 13 19 29 35 36 35 33 30 28 28 31 34 38 42 44 44 43 43 43 43 43 44 44 45 45 46 46 45 45 44 44 44 45 45 46 47 48 49 50 51 51 52 52 52 53 53 53 52 51 50 49 49 49 49 50 51 51 52 52
13 15 13 8 7 8 8 8 9 13 18 18 19 22 17 11 10 8 6 9 11 8 10 12 10 9 13 20 29 36 37 36 35 33 31 29 30 34 39 42 43 43 43 43 43 42 42 42 42 43 44 44 44 44 44 43 43 44 44 45 45 46 47 48 49 50 51 52 52 52 52 52 52 51 49 48 48 48 49 50 50 51 51 52 52 52
12 14 13 9 7 5 5 6 6 11 14 14 19 21 15 11 10 8 6 7 7 7 12 13 10 11 19 28 35 37 35 34 32 31 31 32 34 39 42 42 42 42 41 41 41 41 41 41 41 42 43 43 43 43 43 43 43 44 44 45 46 47 48 49 50 51 51 52 52 52 52 51 50 48 48 48 48 49 50 51 51 51 51 51 51 51
12 15 13 9 6 6 6 5 7 14 14 12 17 18 13 11 11 9 8 6 7 13 18 15 12 17 23 28 33 33 29 28 29 30 31 33 38 42 43 42 42 41 41 40 40 40 41 41 42 43 43 44 44 44 44 44 44 45 45 47 48 49 50 51 51 52 52 52 52 51 49 48 47 47 48 49 49 50 50 50 50 50 50 50 50 50
13 14 14 9 5 6 8 8 12 16 13 12 15 14 11 12 11 10 8 7 12 17 16 13 15 24 26 23 25 26 26 28 32 33 34 37 42 43 43 43 43 42 41 41 41 42 42 43 43 44 44 44 44 44 44 45 45 45 46 48 49 50 51 51 52 51 51 50 49 48 47 47 47 48 49 49 49 49 49 49 49 49 49 49 49 49
12 10 13 11 6 6 11 13 15 17 15 14 14 11 10 11 10 9 9 12 16 14 14 17 23 27 28 24 24 28 30 32 35 35 38 42 44 43 43 43 43 42 42 42 43 43 44 44 44 45 45 45 45 45 45 45 46 47 48 49 50 51 51 51 51 50 49 48 46 46 47 48 48 49 49 49 49 49 49 49 49 49 49 49 49 49
12 10 13 14 9 8 14 17 18 19 19 15 10 8 10 11 9 9 14 19 20 16 19 26 29 29 29 26 27 32 34 36 38 40 42 44 44 43 43 43 43 42 42 43 43 44 44 45 45 45 45 45 45 45 45 46 47 48 49 49 50 50 50 50 49 48 47 46 46 47 48 49 49 49 49 49 49 49 49 49 49 49 48 48 48 48
12 11 14 16 11 9 15 20 20 21 20 14 8 8 11 11 9 13 19 24 25 25 26 29 31 31 29 27 30 35 38 39 41 42 42 43 44 44 43 43 42 42 42 43 43 43 44 44 44 44 44 44 44 44 45 46 47 47 48 48 49 49 48 48 47 46 45 45 46 47 48 48 48 48 48 48 48 49 49 48 48 48 48 47 47 48
13 12 14 17 13 9 14 22 22 20 18 11 6 10 13 11 11 16 22 26 29 30 29 30 31 27 25 30 35 38 40 41 42 43 42 42 43 43 42 42 42 42 42 43 43 44 44 44 44 44 43 43 44 44 45 46 47 47 47 48 48 48 47 46 45 44 44 45 46 47 47 47 47 47 47 47 47 47 47 47 47 46 46 46 47 47
15 14 15 17 13 8 15 23 22 19 15 7 6 12 14 12 13 18 24 29 30 30 31 31 28 22 25 34 39 40 42 43 43 44 44 43 42 42 41 41 41 42 42 43 43 43 44 43 43 43 43 43 44 45 46 46 47 47 47 47 47 46 45 44 43 44 45 46 46 46 46 46 46 46 46 46 46 46 46 46 45 45 45 46 47 47
16 15 16 16 11 8 14 20 19 17 10 4 7 14 15 15 17 22 28 29 28 26 28 28 25 25 32 38 40 42 44 43 44 45 45 44 44 41 40 41 42 42 43 43 43 43 43 43 43 43 43 43 44 45 46 46 47 46 46 46 46 44 43 43 43 44 45 45 45 45 45 45 45 45 45 45 46 46 45 45 44 45 46 46 47 46
16 16 16 16 12 11 16 18 14 9 5 7 12 14 14 17 21 27 31 31 28 26 25 25 27 31 37 41 43 45 45 45 46 46 45 45 44 41 41 41 42 43 43 43 44 43 43 43 42 42 43 43 44 45 45 46 46 46 45 45 44 42 42 42 43 44 44 44 44 44 44 44 44 45 45 45 45 45 44 44 44 45 46 47 47 45
17 16 15 16 15 14 17 17 8 4 8 14 14 12 15 20 26 32 34 32 31 28 25 26 31 37 40 42 43 45 46 47 47 46 46 46 43 42 43 43 43 44 44 44 44 43 42 42 42 42 43 43 44 45 46 46 45 45 44 43 43 41 41 42 43 43 43 43 43 43 43 43 44 44 44 44 44 43 43 43 45 46 46 47 46 45
16 16 15 16 15 14 14 11 6 9 15 15 11 14 20 25 30 35 36 34 31 27 25 29 36 40 41 42 44 45 46 47 47 47 47 46 44 43 43 43 43 44 44 44 43 42 42 41 42 42 43 44 45 46 46 46 45 45 44 43 42 42 42 43 43 43 43 43 43 42 42 43 43 44 44 44 43 42 43 43 45 45 46 46 45 44
15 15 14 13 13 13 12 11 11 13 14 12 12 17 23 28 31 32 35 36 30 25 28 35 39 40 41 42 44 45 46 47 46 46 48 47 44 43 43 42 43 43 43 43 42 41 41 41 41 42 43 44 45 45 46 45 45 44 44 42 42 42 42 43 42 42 42 42 42 42 42 43 43 44 44 44 43 42 43 44 45 45 45 46 45 45
14 14 13 11 13 14 12 11 11 8 7 10 15 20 25 30 30 30 36 35 28 27 34 38 39 40 41 42 43 44 45 47 44 42 46 47 44 43 43 43 43 43 43 42 41 40 40 40 41 42 43 44 44 45 45 44 43 43 42 42 41 41 42 42 41 41 41 41 41 41 41 42 43 43 44 43 43 43 43 44 45 45 45 46 46 45
14 15 14 12 13 15 11 8 8 6 7 12 18 23 28 30 31 32 31 26 25 32 38 39 38 40 41 42 43 43 44 46 44 41 43 45 43 43 43 43 42 42 41 41 40 40 39 40 40 41 42 43 44 44 44 43 42 41 41 40 40 41 40 40 40 40 40 40 40 40 40 41 42 43 43 43 42 42 43 44 45 45 46 46 46 44
15 15 14 11 12 15 13 10 9 9 12 17 21 27 30 31 32 27 17 16 28 38 39 38 39 40 41 42 42 42 42 43 44 42 42 42 42 42 43 43 43 42 41 40 40 39 39 39 40 41 42 43 43 43 43 42 41 40 39 39 39 39 39 39 39 39 39 39 39 39 40 40 41 42 43 42 42 41 42 43 44 45 45 45 45 44
16 16 15 13 14 14 11 11 13 14 15 18 24 29 31 31 28 19 15 24 36 38 37 38 39 39 40 41 41 41 41 41 42 42 42 41 42 42 43 43 43 42 42 41 41 40 40 40 40 41 43 43 44 44 43 42 41 40 39 39 38 38 37 37 38 38 38 39 38 38 39 39 40 41 42 42 41 41 41 42 44 44 45 45 44 43
15 16 15 14 15 14 13 15 15 13 14 21 29 31 30 27 23 21 25 33 36 35 37 38 38 39 41 40 40 42 42 41 42 42 41 41 41 41 42 42 42 42 41 41 41 41 41 40 41 42 43 44 44 44 43 43 41 40 40 40 39 38 37 37 37 37 38 38 38 38 38 38 39 40 41 41 40 40 40 41 43 44 44 44 44 43
14 14 12 12 15 14 12 12 10 11 19 28 31 30 30 28 28 29 32 33 33 35 37 37 37 40 40 40 41 42 42 42 42 41 41 40 40 40 40 40 40 40 40 39 40 40 40 40 41 41 42 43 44 43 43 43 41 41 40 40 39 38 38 37 37 37 37 37 37 37 37 37 38 39 40 40 40 39 40 41 42 42 43 44 43 43
14 14 12 14 16 12 9 9 11 17 27 30 27 27 29 30 31 32 33 33 33 35 36 37 38 40 40 41 42 42 42 42 42 41 41 40 39 40 39 39 39 39 38 38 38 38 39 39 39 40 41 42 42 42 42 42 41 40 40 39 39 38 37 37 37 37 37 37 37 37 37 37 37 38 39 39 39 39 39 40 41 41 42 43 43 43
15 17 17 18 19 16 15 17 19 23 27 29 28 28 28 29 31 31 31 33 34 34 35 37 38 39 41 42 42 42 43 43 42 42 41 40 40 40 39 38 38 38 38 38 38 38 38 38 39 39 39 40 41 41 40 40 40 39 39 39 38 37 37 37 36 36 37 37 37 38 37 37 37 37 37 38 38 38 39 39 40 41 42 43 43 43
17 19 20 21 22 23 22 23 24 25 27 28 30 30 28 29 30 31 31 32 33 34 36 37 38 40 41 42 42 43 43 42 42 42 41 41 40 40 39 39 38 38 38 38 38 38 38 38 39 39 39 39 39 39 39 39 39 39 38 38 37 37 36 36 36 36 36 37 37 37 37 37 37 36 36 36 37 38 38 39 39 40 41 42 43 43
19 20 22 23 24 26 26 25 26 28 29 28 29 30 30 30 30 30 31 32 32 34 36 37 39 40 41 42 43 43 42 42 42 42 41 41 41 40 40 39 38 38 38 38 38 39 39 39 39 39 39 39 39 39 39 38 38 38 38 37 37 37 36 35 36 36 36 37 37 37 37 37 36 36 35 35 36 36 37 38 38 38 39 41 42 43
20 22 24 25 26 28 28 27 27 28 29 29 30 30 30 31 32 32 32 32 33 34 36 37 39 40 41 42 43 43 42 42 42 41 42 41 41 41 40 39 38 38 38 38 38 39 39 39 39 39 39 39 39 39 38 38 38 37 37 37 37 36 35 35 35 35 36 37 37 37 37 36 36 36 36 35 35 35 36 36 37 37 37 39 41 42
21 23 24 26 29 30 30 29 30 31 31 32 33 32 31 31 33 33 33 33 34 35 36 38 39 40 41 41 42 43 42 41 41 41 41 41 41 41 40 39 39 38 38 38 38 38 39 39 39 39 39 39 39 38 38 37 37 37 37 37 36 36 35 35 34 35 36 37 37 37 37 36 36 36 36 35 35 35 35 34 35 36 36 36 37 40
21 24 25 27 30 31 29 29 31 31 31 32 33 34 33 32 32 33 33 34 34 35 36 38 39 40 41 41 42 42 42 41 41 41 40 41 41 40 40 39 39 38 38 38 38 38 38 39 39 39 39 38 38 38 37 37 37 36 36 36 36 36 36 35 35 35 36 36 36 37 37 37 36 36 36 35 35 35 34 33 32 33 34 34 34 35
22 24 25 27 30 30 28 28 29 30 30 31 32 32 32 32 32 33 33 33 34 35 36 37 39 40 41 42 42 42 42 41 41 40 40 40 40 40 39 39 39 38 38 38 38 38 38 38 39 39 38 38 38 37 37 37 36 36 35 35 35 35 36 36 36 36 36 36 36 36 37 37 36 36 36 36 35 35 35 33 31 30 31 32 32 31
Wind_Direction
322 323 306 279 269 265 268 274 278 280 280 281 282 280 278 277 272 265 261 262 265 260 251 249 249 250 252 256 257 256 255 255 255 255 255 256 258 259 260 260 259 257 255 254 251 248 246 244 243 242 242 242 242 243 243 244 246 248 249 251 253 255 257 257 258 258 259 260 262 264 265 267 269 268 270 271 272 273 274 275 276 277 277 278 278 278
336 324 272 274 286 290 288 289 292 291 291 292 288 283 281 274 262 262 267 267 266 261 253 254 254 253 254 256 256 255 253 252 252 252 252 252 254 256 257 255 254 252 251 250 247 244 242 240 240 240 240 240 242 242 244 245 247 249 249 251 252 253 256 257 258 258 258 260 261 263 265 266 268 269 270 272 274 276 277 278 279 280 280 280 281 281
336 281 275 298 306 305 305 306 306 305 306 303 293 284 281 273 262 267 274 274 269 259 253 256 255 253 254 255 255 255 254 253 252 251 250 251 251 251 250 248 247 246 244 242 241 239 239 239 239 239 240 240 242 243 244 246 247 249 249 249 251 252 254 256 258 259 260 262 263 264 266 267 269 271 272 273 274 276 277 279 280 281 282 282 282 283
317 279 293 313 318 318 322 321 318 319 318 307 290 284 289 286 278 277 281 280 271 256 252 256 255 255 256 256 258 258 256 253 252 251 249 249 249 247 246 244 242 239 237 236 235 235 235 237 238 239 241 242 244 245 246 247 247 249 250 251 252 253 256 258 260 263 264 266 268 269 271 272 274 275 276 277 278 279 280 281 282 283 284 284 285 285
325 315 320 326 326 327 330 330 324 324 322 302 280 286 294 290 283 279 281 286 280 262 257 259 255 254 257 259 258 253 250 247 246 246 244 243 242 240 238 235 234 232 230 230 230 232 233 235 238 239 242 244 246 249 250 251 251 252 255 257 259 261 262 264 266 268 270 271 273 274 276 278 280 281 282 283 284 285 285 285 286 287 287 287 288 288
338 335 335 333 334 338 343 342 335 335 334 312 285 294 302 293 283 282 289 290 273 259 262 260 245 240 247 250 251 248 243 241 241 240 238 238 236 233 231 229 229 228 228 229 230 232 235 236 240 242 245 249 251 255 256 258 260 261 264 266 269 270 271 273 274 275 277 278 279 280 281 283 284 285 286 287 287 288 289 289 290 290 290 291 291 291
341 340 341 346 359 9 8 353 343 346 344 323 295 301 307 305 294 291 299 289 260 275 283 263 232 245 241 229 241 247 241 238 238 237 235 235 233 231 231 230 230 230 230 233 235 237 241 244 248 251 254 258 260 264 266 268 271 273 275 277 278 280 281 282 283 283 284 285 285 285 285 286 287 287 288 289 290 290 291 292 292 292 292 292 291 290
343 346 356 12 23 20 5 348 341 341 337 320 309 311 313 312 302 296 296 274 269 290 295 267 238 263 266 206 226 243 242 241 237 234 234 233 234 234 235 235 235 237 238 240 242 245 249 253 257 261 264 267 270 273 276 278 281 283 285 286 286 287 288 288 289 289 289 290 290 290 291 291 292 292 292 293 293 293 293 293 293 292 292 290 290 289
353 6 16 22 20 5 351 346 340 338 336 329 324 323 321 316 302 292 279 263 274 281 277 263 225 249 273 172 202 231 231 236 233 235 236 234 238 238 238 241 240 243 245 246 250 252 257 262 266 270 273 276 279 281 284 285 287 289 290 291 292 292 293 293 294 295 295 295 296 296 297 297 297 297 296 296 295 295 294 293 292 292 291 290 289 289
9 17 20 13 7 359 352 349 351 355 349 339 335 333 330 322 309 297 275 260 274 271 272 269 215 221 242 156 182 215 212 217 222 236 242 237 240 241 241 245 245 248 250 251 256 259 264 269 273 277 280 283 285 286 289 290 291 292 293 294 295 296 297 298 299 299 299 300 300 300 300 299 299 298 297 296 295 295 294 294 293 293 292 291 291 290
14 13 11 5 1 1 2 359 359 358 352 346 344 341 331 315 297 290 275 258 267 265 289 308 217 234 261 138 158 203 205 205 213 239 252 246 244 244 245 248 248 252 255 257 263 267 272 276 279 283 285 287 289 290 292 293 294 295 295 297 298 299 300 300 301 301 301 301 300 300 299 299 298 297 297 296 296 295 295 294 294 293 293 292 292 291
1 3 5 2 3 8 9 5 356 351 352 355 353 344 330 310 278 262 243 230 256 274 43 31 350 269 269 100 143 216 215 213 219 242 260 257 250 246 249 252 253 257 261 265 270 274 278 282 285 288 290 291 293 294 295 297 297 299 299 300 301 301 302 302 302 302 302 302 301 300 300 300 299 299 298 298 297 297 296 295 295 294 293 293 292 291
339 343 360 4 6 6 4 3 358 355 356 360 358 348 339 329 311 294 275 276 291 15 47 8 344 307 283 55 266 254 247 235 234 246 259 263 260 253 253 256 259 263 267 271 276 280 283 287 290 292 294 295 297 298 299 300 301 302 303 304 305 305 305 305 305 305 304 304 303 303 302 302 301 301 300 300 299 298 298 297 296 295 295 294 293 292
334 330 359 5 6 359 360 5 2 356 356 2 3 356 347 346 338 321 317 316 310 349 344 325 322 313 303 315 280 282 286 271 262 262 267 273 269 260 258 261 264 269 273 277 281 284 288 291 294 295 297 298 300 302 303 305 306 307 308 308 308 308 307 307 307 306 306 306 305 305 304 303 303 302 301 301 300 300 299 298 297 297 296 295 293 292
346 341 359 2 2 354 357 8 4 356 5 12 9 6 1 3 352 312 316 320 307 309 308 304 305 278 226 272 280 298 309 303 291 279 277 277 272 268 267 268 272 276 280 284 287 290 293 296 298 299 301 303 305 307 308 309 310 310 310 310 309 309 309 309 308 308 308 307 307 306 305 304 303 303 302 302 301 300 300 299 298 297 296 295 294 293
360 16 8 0 360 357 360 13 12 13 30 15 8 11 359 350 325 285 298 301 289 298 302 286 261 269 268 280 291 308 317 312 303 291 286 283 280 280 279 280 283 286 291 294 296 298 299 301 303 304 306 308 309 311 311 311 310 310 311 311 311 310 310 310 310 309 309 308 307 306 305 305 304 304 303 302 302 301 300 300 299 298 297 296 295 295
10 27 17 3 0 4 9 18 21 27 31 11 5 1 345 329 309 296 301 299 284 286 301 311 280 299 304 302 308 322 326 323 319 311 305 300 297 295 294 295 298 299 301 302 302 302 303 305 307 309 310 310 311 311 311 311 311 311 312 312 311 311 310 310 309 309 308 307 307 306 306 305 305 304 304 303 303 302 301 301 300 299 299 298 297 296
10 359 4 0 2 12 19 21 23 24 24 20 10 358 351 341 320 321 313 309 306 298 310 337 27 26 335 299 307 323 333 339 341 334 326 320 314 309 308 308 307 306 306 305 305 306 308 309 311 311 311 310 310 311 312 312 313 312 312 312 311 311 310 310 309 309 308 308 307 307 307 306 306 305 305 304 303 303 302 301 301 300 299 299 298 297
23 13 343 359 10 23 26 25 18 11 13 19 15 5 7 7 316 330 326 310 312 308 310 327 350 26 29 312 316 329 340 345 343 337 331 325 319 314 312 310 308 307 308 308 310 311 311 311 311 311 312 312 313 313 314 313 313 313 313 313 312 312 311 311 310 310 310 309 309 308 308 307 307 306 305 305 304 304 303 302 301 301 300 299 298 298
32 22 341 358 11 19 22 26 22 5 5 10 9 3 8 7 318 322 323 309 312 310 312 319 320 346 28 330 330 337 340 339 335 331 326 320 317 314 311 309 309 309 310 311 312 311 311 311 312 314 314 314 314 314 314 314 314 314 313 313 312 311 311 311 311 311 310 310 310 309 309 308 308 307 306 306 305 304 304 303 302 302 301 300 300 299
36 17 336 348 6 14 12 17 20 7 2 6 7 2 3 5 348 322 306 312 322 314 317 318 317 336 319 317 333 337 334 334 332 327 322 317 315 314 311 310 311 312 312 312 312 312 313 314 315 316 315 315 314 314 314 314 314 314 313 312 312 311 311 311 311 311 311 311 311 310 310 309 309 308 307 307 306 306 305 305 304 304 303 303 302 302
33 17 343 338 3 12 5 9 14 6 0 1 6 7 5 2 357 337 310 345 341 321 313 309 308 315 304 305 326 332 330 330 327 324 320 315 314 313 312 313 314 314 313 313 314 315 316 316 316 316 315 315 314 314 314 314 314 314 313 313 313 313 313 313 313 313 313 312 312 311 311 310 310 309 309 308 308 307 307 306 306 306 305 304 304 303
27 18 355 325 336 348 356 6 5 357 355 351 355 4 7 6 5 349 319 334 332 313 310 315 308 306 310 316 325 326 325 325 323 322 319 315 314 314 315 315 314 314 315 315 316 316 316 316 315 315 314 313 313 313 313 313 314 314 314 314 314 314 315 315 315 314 314 313 313 312 312 311 311 310 310 310 310 309 309 308 308 307 306 305 304 303
23 16 359 324 312 317 328 346 350 352 353 347 346 356 4 10 6 349 316 316 316 313 326 324 309 311 324 325 323 320 320 320 321 320 318 317 317 316 315 315 314 315 316 316 316 315 314 314 314 313 313 312 312 312 313 314 315 315 316 316 316 316 316 316 316 315 315 314 314 314 313 313 313 312 312 312 312 311 311 310 310 309 308 307 305 305
25 18 4 341 333 325 320 339 346 347 349 338 336 348 359 5 1 357 335 308 303 340 341 316 297 318 324 319 318 318 317 320 321 319 317 316 316 315 315 315 315 316 316 315 314 314 314 314 314 313 313 313 313 314 315 316 317 317 317 317 317 317 316 316 316 316 316 315 315 315 315 315 314 314 314 314 314 313 313 312 311 310 309 308 307 307
25 25 19 360 351 352 346 340 321 327 332 322 326 340 354 1 6 11 357 320 315 334 327 307 300 316 317 316 319 319 315 317 319 316 313 313 314 315 317 317 318 318 316 316 315 315 316 316 315 315 315 315 316 317 318 319 319 318 318 318 317 317 317 317 317 317 317 317 317 317 316 316 315 316 316 315 315 314 313 312 311 311 310 310 309 308
23 20 17 7 352 344 341 328 317 324 326 313 321 337 354 358 3 13 9 339 331 326 314 312 317 312 311 315 316 310 307 312 315 313 311 311 314 318 320 320 320 319 317 317 318 318 318 317 316 316 317 317 318 319 319 319 319 318 318 318 318 318 318 318 318 319 318 318 318 317 317 317 317 317 317 316 316 315 314 314 313 312 312 311 310 309
20 9 4 2 354 343 345 338 331 333 329 321 327 341 352 351 354 8 3 344 341 326 302 315 320 311 312 315 308 306 310 314 314 313 312 313 317 320 321 319 319 319 318 318 319 319 318 318 318 318 318 319 319 320 319 319 319 319 319 320 320 320 320 320 320 320 320 320 319 319 319 319 319 319 318 317 317 317 316 315 315 314 314 312 311 310
15 8 360 358 350 344 349 345 338 336 332 331 339 345 343 344 345 352 349 343 340 326 311 319 320 314 314 313 310 315 318 317 315 315 316 318 320 321 320 319 319 318 318 318 318 318 318 318 318 318 318 319 319 319 319 319 320 320 321 321 321 321 321 321 321 321 321 320 320 320 320 320 320 319 319 318 318 318 317 317 316 315 314 313 311 310
9 2 355 353 344 336 347 346 340 336 333 332 345 345 336 336 333 337 343 342 334 326 323 322 320 318 316 314 316 319 318 317 317 318 320 320 320 320 319 319 318 318 318 318 318 317 317 318 318 318 318 318 318 318 319 320 320 321 321 321 321 321 321 321 321 321 321 321 321 321 320 320 320 319 319 319 319 318 318 317 316 315 314 312 310 309
6 357 352 353 344 324 339 345 341 335 330 323 334 340 332 328 326 330 335 335 330 328 327 323 321 321 317 315 318 319 318 319 320 320 320 319 318 319 319 318 318 318 318 318 318 318 318 318 319 319 319 319 319 319 320 321 322 322 323 322 322 322 322 322 321 321 321 321 321 321 320 320 320 320 320 319 318 318 317 316 315 314 313 311 310 310
2 358 354 356 352 327 334 341 337 330 322 302 311 332 327 321 321 322 326 329 330 329 326 323 322 319 312 315 319 319 321 322 321 321 321 320 320 320 319 319 318 318 318 318 318 319 319 319 319 319 319 320 320 321 322 323 323 324 323 323 323 323 323 322 322 322 322 321 321 321 321 321 321 321 320 320 319 318 318 316 315 314 313 313 312 312
360 0 357 357 352 326 336 341 329 318 314 293 315 325 321 316 317 318 322 328 330 326 321 318 318 315 315 319 322 322 323 323 322 322 322 321 322 322 321 320 319 319 319 319 320 320 320 320 320 320 320 321 321 322 323 324 324 324 324 324 323 323 323 322 322 322 322 322 322 322 322 322 321 321 321 321 320 320 319 317 317 316 316 315 315 315
357 357 355 356 344 324 340 347 326 300 314 326 318 318 316 316 319 321 324 329 332 329 323 319 319 321 323 324 324 324 325 323 323 323 322 321 323 323 322 321 320 320 321 320 321 321 320 320 320 321 321 321 322 323 324 325 325 325 324 324 323 323 323 323 322 322 322 322 323 323 323 322 322 322 322 322 322 321 320 319 319 319 318 318 318 318
353 352 352 353 345 332 341 349 336 291 322 317 307 311 319 321 325 326 327 331 334 333 327 323 324 326 326 325 325 324 324 323 323 323 321 321 324 324 323 322 322 321 321 321 321 321 320 321 321 321 322 322 323 324 325 326 325 325 325 324 324 324 323 323 323 322 323 324 324 323 323 322 323 324 324 324 322 321 321 321 321 320 320 320 320 320
348 353 352 347 344 338 337 340 322 307 315 309 301 318 327 328 331 329 327 331 334 330 325 326 328 328 327 325 324 324 323 322 323 322 321 323 326 325 323 322 321 321 321 321 321 321 321 322 322 322 323 324 325 326 326 327 326 326 326 325 324 324 324 324 324 324 325 325 324 324 323 324 325 326 325 325 324 323 323 322 322 321 322 322 322 322
345 350 351 343 342 342 331 313 297 296 302 306 314 323 327 328 330 326 322 326 331 330 328 329 328 326 326 324 324 324 323 322 324 324 322 324 326 323 322 322 321 321 321 321 321 322 322 322 323 323 324 325 326 326 327 327 327 326 326 325 325 325 325 325 325 325 325 325 324 324 324 326 327 327 327 326 325 325 324 323 322 323 324 324 324 324
342 345 348 341 338 343 332 311 306 299 292 309 318 321 324 327 328 324 319 322 330 332 329 328 326 325 325 324 324 325 323 323 326 324 321 324 325 323 322 322 321 321 321 321 322 322 322 323 323 324 325 326 326 327 327 327 327 326 325 325 325 325 325 325 325 325 325 325 325 325 326 327 328 328 328 328 326 326 325 323 324 326 327 326 326 326
341 342 345 339 334 340 335 310 306 302 292 308 317 322 325 326 326 325 320 319 326 328 325 325 325 325 325 324 324 325 323 323 326 323 320 322 323 321 321 321 321 322 322 322 322 323 323 323 324 325 326 326 327 327 327 327 327 326 325 325 325 325 325 325 325 325 325 325 326 326 327 328 328 329 329 328 327 326 325 324 326 328 328 327 326 327
340 340 340 335 327 329 328 311 300 291 288 301 317 324 325 325 326 325 318 311 319 323 323 324 325 324 324 324 324 324 324 323 324 323 321 322 322 321 321 322 323 323 323 323 323 323 323 324 325 326 327 327 327 328 327 327 327 326 325 325 325 326 326 325 325 325 326 326 327 327 328 329 330 330 330 328 327 326 326 326 327 328 327 327 327 328
336 336 336 334 328 323 315 306 303 295 290 305 320 324 323 324 324 318 306 311 317 320 321 322 323 323 323 323 323 324 325 324 323 323 323 323 322 322 323 323 324 324 324 324 324 323 325 326 327 328 328 328 329 329 328 328 328 327 326 326 326 327 326 325 326 326 327 327 327 328 328 330 331 331 330 329 327 327 327 327 327 327 327 328 329 330
329 331 331 328 328 324 310 305 304 296 303 320 324 321 320 320 316 309 309 314 317 318 319 321 322 322 323 324 324 325 326 326 325 324 325 324 323 323 324 324 324 324 324 324 323 324 325 327 328 329 329 329 330 330 330 329 329 329 327 327 328 328 327 326 327 328 328 328 328 328 329 331 331 331 330 329 328 328 328 328 327 327 328 329 330 330
322 324 320 315 322 323 309 306 308 303 315 322 321 317 317 316 312 313 316 317 317 317 320 322 323 323 324 325 326 326 327 327 327 326 325 325 324 324 324 324 324 323 323 323 323 324 326 327 329 329 329 330 330 331 330 330 330 329 328 328 328 328 328 328 328 328 328 328 329 330 330 331 331 331 331 330 330 330 329 328 328 328 328 329 331 332
320 322 315 310 318 318 293 295 307 307 313 319 318 316 315 313 313 316 317 317 318 319 320 322 323 324 324 325 327 328 328 328 327 327 326 325 325 325 325 325 324 324 323 323 323 324 326 328 329 330 330 330 331 331 330 329 329 329 328 328 329 328 328 328 328 328 328 329 330 331 332 332 332 331 331 331 331 331 330 328 328 329 329 331 332 333
318 322 317 310 312 311 303 307 313 313 316 320 321 320 318 314 315 317 316 316 318 319 320 322 324 324 325 326 328 328 329 329 329 328 327 326 326 326 326 326 325 324 324 324 324 325 327 328 330 331 331 331 331 331 330 329 329 329 329 328 329 328 328 328 328 328 329 330 330 331 332 333 332 331 331 332 332 333 332 330 330 330 331 332 333 335
316 320 319 316 314 313 316 320 322 322 323 323 322 323 323 320 318 318 318 318 318 319 321 323 324 325 326 327 328 329 329 329 329 328 328 327 327 327 327 327 326 325 325 325 325 326 328 329 331 332 332 332 332 331 331 330 330 329 329 329 329 329 328 329 329 329 331 331 331 332 332 333 332 331 332 332 334 335 334 332 331 332 332 333 334 335
314 316 320 322 317 314 320 326 325 324 326 326 324 324 325 323 321 320 320 320 320 320 322 324 325 326 327 327 327 329 329 330 329 329 328 327 327 327 327 327 327 326 326 326 327 327 329 330 331 332 333 333 333 332 331 331 331 330 330 329 329 329 329 330 330 331 332 332 332 333 333 332 332 332 332 334 335 336 335 334 333 333 334 334 335 336
310 311 319 324 319 316 322 326 324 324 327 327 326 327 326 325 324 324 323 323 322 322 323 324 326 327 327 327 328 329 330 330 330 329 328 327 327 327 327 327 327 327 326 327 328 328 329 331 332 333 334 334 334 333 332 332 332 331 331 330 330 330 330 331 332 333 333 333 332 333 333 333 333 333 334 335 336 337 337 336 335 335 335 336 336 337
305 307 315 320 320 321 325 326 325 327 329 329 329 330 329 327 326 325 324 324 323 323 324 325 326 327 327 328 328 328 329 330 329 329 328 327 327 327 327 327 327 327 327 327 328 328 329 330 332 333 334 335 335 334 333 333 332 332 331 331 331 331 331 332 333 334 333 333 333 333 333 334 335 335 335 336 336 337 337 338 338 336 336 338 339 340
303 306 312 316 318 323 326 323 322 325 327 327 328 329 329 328 326 325 324 324 324 325 326 326 326 327 328 328 328 328 329 329 329 329 328 327 327 327 327 327 328 328 327 328 328 328 329 330 332 333 334 335 335 334 334 333 334 333 333 332 331 331 331 333 335 335 335 334 335 335 335 336 337 337 337 337 337 336 336 338 341 339 338 339 342 343
305 308 310 312 315 320 322 320 319 322 324 325 326 327 327 327 326 324 324 324 325 325 326 326 326 327 328 328 328 329 329 329 329 329 329 328 327 327 327 327 328 328 328 328 328 328 329 331 332 333 335 335 335 335 334 334 334 334 333 332 331 332 333 334 336 336 336 337 337 337 337 338 339 339 340 339 338 337 335 337 341 343 341 341 342 343